FZBU weather

Ipeke Airport
Ipeke, Bandundu Province, Congo (Kinshasa)

Public forecast

Using degrees Celsius for public forecast. Weather courtesy of forecast.io.

METAR (pilot weather report)

Report is more than 6 hours old.

Closest report is Gamboma Airport, 147.2 nm (272.6 km) WNW. Retrieved 2017/03/27 15:00 UTC (2 years ago):

FCOG 271500Z 36004KT 9999 FEW023 35/22 Q////

TAF (pilot weather forecast)

Closest forecast is Ndjili International Airport, 203.3 nm (376.5 km) SW. Retrieved 2019/04/22 06:00 UTC (3 hours ago):

TAF FZAA 220500Z 2206/2312 23004KT 8000 SCT016 BECMG 2212/2214 32014KT FEW024 FEW030CB PROB30 TEMPO 2215/2219 TS BECMG 2222/2300 18004KT SCT016 BECMG 2309/2311 28010KT FEW022 FEW028CB